• în România
  • Lista ţărilor
  • Pe 7 zile
  • Temperatura apei
  • Hartă satelitară
  • Meteo pe hartă
  • Widget-uri
  • user-avatar
    Intrare

    Meteo pe oră la Kashino

    Astăzi, 20 Mai, Duminică

    Timp Temperatura Precipitaţii Vânt Presiune Umiditate
    00:00 +12°C° 0 mm 2 m/s 741 mmHg 96%
    01:00 +12°C° 0 mm 2 m/s 741 mmHg 96%
    02:00 +12°C° 0 mm 2 m/s 742 mmHg 97%
    03:00 +10°C° 0 mm 2 m/s 742 mmHg 97%
    04:00 +10°C° 0 mm 3 m/s 742 mmHg 96%
    05:00 +11°C° 0 mm 3 m/s 743 mmHg 96%
    06:00 +11°C° 0 mm 3 m/s 743 mmHg 95%
    07:00 +12°C° 0 mm 3 m/s 743 mmHg 93%
    08:00 +13°C° 0 mm 2 m/s 744 mmHg 91%
    09:00 +14°C° 0 mm 2 m/s 744 mmHg 89%
    10:00 +15°C° 0 mm 2 m/s 744 mmHg 87%
    11:00 +15°C° 0 mm 2 m/s 744 mmHg 85%
    12:00 +16°C° 0 mm 2 m/s 745 mmHg 83%
    13:00 +16°C° 0,1 mm 3 m/s 745 mmHg 81%
    14:00 +17°C° 0,1 mm 3 m/s 745 mmHg 79%
    15:00 +18°C° 0,1 mm 4 m/s 745 mmHg 77%
    16:00 +17°C° 0,2 mm 4 m/s 745 mmHg 78%
    17:00 +17°C° 0,2 mm 4 m/s 745 mmHg 80%
    18:00 +16°C° 0,2 mm 5 m/s 745 mmHg 81%
    19:00 +15°C° 0 mm 5 m/s 746 mmHg 82%
    20:00 +14°C° 0 mm 5 m/s 746 mmHg 83%
    21:00 +13°C° 0 mm 5 m/s 747 mmHg 84%
    22:00 +13°C° 0 mm 5 m/s 747 mmHg 82%
    23:00 +12°C° 0 mm 5 m/s 747 mmHg 81%

    Mâine, 21 Mai, Luni

    Timp Temperatura Precipitaţii Vânt Presiune Umiditate
    00:00 +12°C° 0 mm 5 m/s 747 mmHg 79%
    01:00 +10°C° 0 mm 5 m/s 748 mmHg 80%
    02:00 +10°C° 0 mm 5 m/s 748 mmHg 80%
    03:00 +10°C° 0 mm 5 m/s 748 mmHg 80%
    04:00 +9°C° 0,1 mm 5 m/s 748 mmHg 81%
    05:00 +9°C° 0,1 mm 6 m/s 749 mmHg 81%
    06:00 +9°C° 0,1 mm 6 m/s 749 mmHg 82%
    07:00 +9°C° 0,1 mm 6 m/s 749 mmHg 80%
    08:00 +10°C° 0,1 mm 7 m/s 750 mmHg 77%
    09:00 +10°C° 0,1 mm 7 m/s 750 mmHg 75%
    10:00 +11°C° 0 mm 7 m/s 750 mmHg 74%
    11:00 +11°C° 0 mm 7 m/s 750 mmHg 72%
    12:00 +12°C° 0 mm 7 m/s 750 mmHg 71%
    13:00 +12°C° 0 mm 7 m/s 750 mmHg 70%
    14:00 +14°C° 0 mm 7 m/s 750 mmHg 68%
    15:00 +15°C° 0 mm 7 m/s 750 mmHg 67%
    16:00 +15°C° 0 mm 7 m/s 750 mmHg 69%
    17:00 +15°C° 0 mm 6 m/s 750 mmHg 70%
    18:00 +15°C° 0 mm 6 m/s 750 mmHg 72%
    19:00 +14°C° 0 mm 5 m/s 750 mmHg 73%
    20:00 +14°C° 0 mm 5 m/s 751 mmHg 75%
    21:00 +13°C° 0 mm 5 m/s 751 mmHg 76%
    22:00 +13°C° 0 mm 5 m/s 751 mmHg 75%
    23:00 +13°C° 0 mm 6 m/s 751 mmHg 75%

    Poimâine, 22 Mai, Marţi

    Timp Temperatura Precipitaţii Vânt Presiune Umiditate
    00:00 +13°C° 0 mm 6 m/s 751 mmHg 75%
    01:00 +13°C° 0,1 mm 6 m/s 751 mmHg 76%
    02:00 +12°C° 0,1 mm 5 m/s 751 mmHg 77%
    03:00 +12°C° 0,1 mm 5 m/s 751 mmHg 79%
    04:00 +12°C° 0 mm 5 m/s 751 mmHg 79%
    05:00 +10°C° 0 mm 5 m/s 751 mmHg 80%
    06:00 +10°C° 0 mm 5 m/s 752 mmHg 80%
    07:00 +11°C° 0,1 mm 6 m/s 752 mmHg 80%
    08:00 +13°C° 0,1 mm 6 m/s 752 mmHg 79%
    09:00 +15°C° 0,1 mm 6 m/s 752 mmHg 79%
    10:00 +16°C° 0 mm 6 m/s 752 mmHg 78%
    11:00 +17°C° 0 mm 6 m/s 752 mmHg 76%
    12:00 +19°C° 0 mm 6 m/s 752 mmHg 75%
    13:00 +19°C° 0 mm 6 m/s 752 mmHg 75%
    14:00 +20°C° 0 mm 5 m/s 752 mmHg 75%
    15:00 +21°C° 0 mm 5 m/s 752 mmHg 75%
    16:00 +20°C° 0 mm 4 m/s 751 mmHg 78%
    17:00 +20°C° 0 mm 3 m/s 751 mmHg 80%
    18:00 +20°C° 0 mm 2 m/s 751 mmHg 83%
    19:00 +19°C° 0,1 mm 2 m/s 751 mmHg 86%
    20:00 +19°C° 0,1 mm 2 m/s 751 mmHg 88%
    21:00 +18°C° 0,1 mm 2 m/s 751 mmHg 91%
    22:00 +17°C° 0,5 mm 3 m/s 751 mmHg 92%
    23:00 +17°C° 0,5 mm 3 m/s 751 mmHg 93%

    23 Mai, Miercuri

    Timp Temperatura Precipitaţii Vânt Presiune Umiditate
    00:00 +16°C° 0,5 mm 3 m/s 751 mmHg 95%
    01:00 +16°C° 0,1 mm 3 m/s 751 mmHg 95%
    02:00 +14°C° 0,1 mm 3 m/s 751 mmHg 95%
    03:00 +15°C° 0,1 mm 2 m/s 751 mmHg 95%
    04:00 +15°C° 0 mm 2 m/s 751 mmHg 94%
    05:00 +15°C° 0 mm 2 m/s 751 mmHg 94%
    06:00 +16°C° 0 mm 2 m/s 751 mmHg 93%
    07:00 +17°C° 0 mm 2 m/s 751 mmHg 89%
    08:00 +19°C° 0 mm 2 m/s 751 mmHg 85%
    09:00 +20°C° 0 mm 2 m/s 751 mmHg 81%
    10:00 +21°C° 0,2 mm 2 m/s 751 mmHg 77%
    11:00 +24°C° 0,2 mm 2 m/s 751 mmHg 73%
    12:00 +25°C° 0,2 mm 2 m/s 751 mmHg 69%
    13:00 +25°C° 0,5 mm 3 m/s 750 mmHg 67%
    14:00 +26°C° 0,5 mm 3 m/s 750 mmHg 64%
    15:00 +26°C° 0,5 mm 3 m/s 750 mmHg 62%
    16:00 +26°C° 0,2 mm 3 m/s 749 mmHg 65%
    17:00 +26°C° 0,2 mm 3 m/s 749 mmHg 68%
    18:00 +25°C° 0,2 mm 2 m/s 749 mmHg 72%
    19:00 +24°C° 0,1 mm 2 m/s 749 mmHg 76%
    20:00 +21°C° 0,1 mm 2 m/s 748 mmHg 81%
    21:00 +19°C° 0,1 mm 2 m/s 748 mmHg 86%
    22:00 +19°C° 0,2 mm 2 m/s 748 mmHg 88%
    23:00 +18°C° 0,2 mm 2 m/s 748 mmHg 90%

    24 Mai, Joi

    Timp Temperatura Precipitaţii Vânt Presiune Umiditate
    00:00 +18°C° 0,2 mm 2 m/s 748 mmHg 92%
    01:00 +18°C° 0,5 mm 2 m/s 747 mmHg 93%
    02:00 +17°C° 0,5 mm 2 m/s 747 mmHg 94%
    03:00 +17°C° 0,5 mm 2 m/s 747 mmHg 95%
    04:00 +17°C° 0,1 mm 2 m/s 747 mmHg 94%
    05:00 +18°C° 0,1 mm 2 m/s 747 mmHg 94%
    06:00 +18°C° 0,1 mm 2 m/s 746 mmHg 94%
    07:00 +19°C° 0,6 mm 2 m/s 746 mmHg 89%
    08:00 +20°C° 0,6 mm 2 m/s 746 mmHg 85%
    09:00 +23°C° 0,6 mm 1 m/s 746 mmHg 80%
    10:00 +23°C° 0,7 mm 2 m/s 746 mmHg 78%
    11:00 +24°C° 0,7 mm 3 m/s 746 mmHg 75%
    12:00 +24°C° 0,7 mm 3 m/s 746 mmHg 73%
    13:00 +24°C° 0,7 mm 3 m/s 746 mmHg 72%
    14:00 +24°C° 0,7 mm 3 m/s 745 mmHg 71%
    15:00 +24°C° 0,7 mm 3 m/s 745 mmHg 70%
    16:00 +24°C° 0,2 mm 3 m/s 745 mmHg 72%
    17:00 +24°C° 0,2 mm 2 m/s 745 mmHg 74%
    18:00 +24°C° 0,2 mm 2 m/s 744 mmHg 76%
    19:00 +21°C° 0,2 mm 2 m/s 744 mmHg 78%
    20:00 +20°C° 0,2 mm 2 m/s 744 mmHg 81%
    21:00 +19°C° 0,2 mm 2 m/s 744 mmHg 83%
    22:00 +18°C° 0,7 mm 2 m/s 744 mmHg 85%
    23:00 +18°C° 0,7 mm 2 m/s 744 mmHg 86%

    25 Mai, Vineri

    Timp Temperatura Precipitaţii Vânt Presiune Umiditate
    00:00 +17°C° 0,7 mm 2 m/s 744 mmHg 88%
    01:00 +17°C° 0,2 mm 2 m/s 744 mmHg 89%
    02:00 +16°C° 0,2 mm 1 m/s 744 mmHg 90%
    03:00 +16°C° 0,2 mm 1 m/s 744 mmHg 91%
    04:00 +16°C° 0,2 mm 1 m/s 745 mmHg 91%
    05:00 +18°C° 0,2 mm 1 m/s 745 mmHg 90%
    06:00 +17°C° 0,2 mm 2 m/s 745 mmHg 90%
    07:00 +18°C° 0,3 mm 3 m/s 745 mmHg 89%
    08:00 +19°C° 0,3 mm 4 m/s 746 mmHg 88%
    09:00 +19°C° 0,3 mm 5 m/s 746 mmHg 87%
    10:00 +20°C° 0,4 mm 5 m/s 746 mmHg 85%
    11:00 +20°C° 0,4 mm 6 m/s 747 mmHg 84%
    12:00 +20°C° 0,4 mm 6 m/s 747 mmHg 83%
    13:00 +18°C° 0,3 mm 7 m/s 748 mmHg 83%
    14:00 +17°C° 0,3 mm 7 m/s 748 mmHg 84%
    15:00 +16°C° 0,3 mm 8 m/s 749 mmHg 85%
    16:00 +15°C° 0 mm 7 m/s 749 mmHg 85%
    17:00 +14°C° 0 mm 7 m/s 750 mmHg 85%
    18:00 +12°C° 0 mm 7 m/s 750 mmHg 85%
    19:00 +11°C° 0 mm 7 m/s 751 mmHg 84%
    20:00 +11°C° 0 mm 7 m/s 751 mmHg 83%
    21:00 +10°C° 0 mm 7 m/s 752 mmHg 82%
    22:00 +10°C° 0 mm 7 m/s 752 mmHg 81%
    23:00 +9°C° 0 mm 6 m/s 752 mmHg 81%
    Arată mai mult